Theta_e
308 309 310 304 305 307 304 305 304 307 312 318 320 322 323 325 330 335 340 341 346 351 350 347 347 348 349 353 358 358 353 349
307 309 309 308 309 304 307 298 296 304 307 310 316 319 322 324 327 336 340 342 348 351 353 355 354 354 355 358 356 352 347 347
305 307 307 305 305 307 309 307 301 299 304 318 318 320 322 325 328 336 340 342 347 349 350 354 356 356 355 354 352 349 348 348
305 307 311 311 308 311 304 305 308 307 307 317 321 322 325 325 330 339 342 343 345 344 346 348 348 352 353 353 351 351 353 352
302 308 311 311 311 310 310 312 309 305 307 319 322 322 324 325 335 340 341 341 339 340 340 345 344 346 346 350 352 351 353 352
301 304 310 310 311 312 311 308 308 309 311 316 319 321 322 327 336 339 340 339 338 340 343 346 346 346 348 347 349 351 352 350
306 306 308 311 311 310 310 311 308 310 311 316 315 321 323 331 336 337 336 337 337 338 338 345 344 346 347 347 349 350 351 350
308 311 310 309 311 311 311 310 310 313 314 320 320 324 324 331 333 335 335 335 334 336 339 337 342 345 344 350 351 350 347 347
302 310 310 307 312 312 313 315 315 311 317 319 322 321 324 329 333 335 334 335 335 338 335 337 341 344 343 350 350 344 343 345
307 309 301 310 316 316 315 315 317 317 319 324 327 327 327 334 332 334 335 334 334 332 332 335 339 341 346 345 344 344 342 342
306 306 308 310 314 315 314 314 319 317 319 327 331 331 328 335 336 334 334 336 335 334 337 340 341 345 345 342 343 342 342 344
307 304 301 312 316 320 318 310 320 324 326 328 332 323 329 337 337 334 335 335 336 341 340 342 343 345 343 343 341 342 344 343
309 307 309 315 319 320 309 312 322 325 328 330 329 329 330 332 331 332 332 331 332 334 340 339 342 343 341 339 335 337 340 339
310 308 305 319 319 314 320 326 329 330 331 329 330 332 333 332 330 326 325 332 333 333 330 336 339 337 331 327 328 330 330 329
314 314 319 323 324 327 327 327 333 331 333 332 332 331 332 332 331 328 325 330 331 328 326 326 326 327 323 321 323 324 324 323
314 316 319 321 324 325 327 327 332 332 334 333 329 332 331 330 330 327 329 328 325 325 324 321 321 320 319 319 320 320 319 318
316 319 321 322 324 326 329 331 332 332 334 334 334 333 333 331 330 327 328 327 326 324 320 318 319 317 317 317 317 316 316 316
313 319 321 322 321 328 329 330 333 331 331 334 335 332 331 329 329 329 326 325 322 320 319 317 316 315 315 316 315 314 314 313
319 319 322 323 321 324 326 331 334 333 333 333 333 331 329 327 326 320 323 322 320 317 316 315 314 313 314 314 314 313 312 312
Wind_Speed
5 3 4 7 5 3 6 1 4 0 4 11 8 6 6 9 9 13 10 5 6 9 10 9 9 10 11 11 10 8 8 8
4 5 5 2 7 4 1 4 6 3 4 6 2 11 9 11 14 12 10 6 7 9 10 9 7 7 10 9 10 10 8 6
1 5 6 5 5 3 5 2 3 3 4 1 3 4 14 13 14 14 12 10 9 9 10 9 8 7 7 8 10 8 7 7
2 5 1 3 3 7 5 6 0 3 3 2 5 5 11 10 10 14 14 13 11 9 9 9 8 6 5 5 6 7 5 5
6 5 5 3 5 3 5 3 7 3 2 3 2 6 9 11 16 15 15 16 12 9 9 11 10 8 7 4 4 5 5 6
6 2 1 6 7 8 6 5 7 6 8 4 6 8 11 11 16 17 16 17 13 8 9 11 10 9 11 10 4 4 6 7
1 3 4 4 8 11 7 1 5 3 6 4 1 9 15 14 16 17 17 16 13 10 7 7 8 6 5 8 5 6 7 8
1 2 6 4 6 6 5 3 7 3 7 1 3 6 13 15 18 19 18 17 14 11 9 10 11 9 5 8 6 5 6 5
5 2 5 5 11 9 4 4 4 7 3 4 2 9 15 17 19 19 21 19 13 7 6 10 8 7 5 6 7 5 4 4
4 4 5 3 1 2 8 5 9 9 8 4 5 2 9 14 15 15 19 16 8 5 7 7 5 5 6 7 6 5 4 4
5 8 2 2 7 8 9 9 12 10 5 3 3 3 3 5 8 8 8 8 8 5 8 7 6 5 5 6 6 5 5 5
4 5 9 2 5 4 5 9 9 6 3 5 7 5 5 8 9 9 12 7 5 7 7 7 5 6 6 5 3 3 3 4
4 3 4 3 7 6 7 3 5 1 4 5 5 2 10 17 19 16 11 8 6 5 3 4 5 7 8 8 8 7 6 6
3 2 6 5 7 6 3 1 2 6 9 15 14 12 15 18 18 16 13 14 7 5 4 8 10 10 10 11 8 8 7 7
5 0 2 3 2 1 0 3 7 7 14 19 18 15 15 14 15 13 15 8 5 7 10 12 12 9 10 9 8 8 7 8
4 3 6 7 6 6 4 2 5 7 14 14 17 16 12 9 7 11 11 10 9 9 12 12 11 11 10 9 8 8 8 8
5 7 8 11 9 7 6 4 9 9 10 9 17 13 11 11 11 11 11 10 9 11 11 10 8 9 9 9 10 8 7 7
1 1 2 0 1 7 6 4 12 14 11 10 9 14 16 14 12 12 11 10 11 11 10 8 8 9 10 10 9 8 7 7
2 2 5 4 3 4 7 4 12 13 12 12 11 13 16 16 13 13 13 12 10 10 9 8 8 8 9 8 7 8 7 8
Wind_Direction
201 130 227 148 197 64 117 113 253 312 259 262 224 190 179 163 169 182 173 156 156 113 107 126 153 149 144 145 137 142 141 141
122 136 72 299 128 172 170 215 250 229 271 260 198 205 205 180 189 177 154 123 87 82 86 87 82 109 125 134 135 134 134 149
175 206 157 145 189 67 107 298 251 273 281 257 289 244 190 197 193 162 138 141 129 110 96 99 104 110 114 130 134 140 147 151
213 109 30 216 177 206 227 183 319 331 295 210 266 221 187 181 163 150 143 136 134 119 117 113 101 97 122 140 154 148 144 137
155 131 170 213 176 169 113 144 183 217 288 161 71 151 170 147 150 154 143 139 131 117 135 138 139 132 131 141 155 177 178 173
186 147 97 193 176 179 235 192 152 231 299 120 148 166 156 154 168 159 153 151 153 149 149 158 158 163 148 132 130 175 210 201
193 280 234 266 187 176 215 185 241 75 222 7 326 201 180 162 161 162 159 163 166 176 207 163 137 117 80 94 156 170 212 212
122 347 221 238 181 187 221 197 262 258 278 139 133 162 176 179 172 172 162 168 178 201 196 186 156 152 113 111 184 167 216 238
217 67 163 215 206 198 191 202 225 225 247 341 189 185 193 191 192 175 166 175 187 191 158 163 159 136 88 135 149 178 207 236
122 155 192 53 290 213 223 234 222 263 270 298 287 225 203 195 194 179 175 174 153 142 152 146 148 125 137 152 162 187 198 242
166 198 341 225 201 190 190 233 213 226 221 219 168 195 198 225 195 186 155 114 131 144 121 124 131 146 149 157 173 185 219 249
167 181 214 206 150 149 135 252 203 210 270 187 168 226 74 68 78 82 57 10 50 73 99 117 138 152 146 147 157 45 35 26
151 218 271 203 151 158 202 316 87 28 37 139 172 1 111 92 81 75 46 358 348 345 65 66 128 129 110 88 54 26 32 43
117 175 254 147 146 215 22 289 22 75 111 117 124 127 122 111 112 89 58 279 51 72 48 60 79 91 85 63 35 31 30 28
234 280 84 207 321 28 64 308 61 115 138 137 144 148 156 152 146 140 142 208 136 123 92 67 62 66 74 46 30 20 16 11
251 174 247 235 236 237 248 294 69 139 165 165 159 165 147 118 119 99 124 123 133 119 86 74 60 57 54 34 19 18 15 9
252 266 271 260 238 232 214 167 117 144 176 170 157 150 143 141 134 117 114 114 111 95 86 78 69 56 42 34 21 14 5 5
165 194 275 307 251 197 196 170 149 149 170 185 162 149 140 132 126 122 119 116 98 96 91 76 62 50 38 31 19 6 4 4
103 202 203 277 273 248 230 163 149 143 157 163 154 142 135 128 123 117 114 104 99 93 86 73 65 56 42 27 17 21 15 7